Regional Weather Roundup
Issued by NWS

Home | Current Version | Previous Version | Text Only | Print | Product List | Glossary On
Versions: 1 2 3 4 5 6 7 8 9 10 11 12 13 14 15 16 17 18 19 20 21 22 23 24 25 26 27 28 29 30 31 32 33 34 35 36 37 38 39 40 41 42 43 44 45 46 47 48 49 50
000
ASUS43 KMPX 220410
RWRMN
WEATHER ROUNDUP FOR MINNESOTA
NATIONAL WEATHER SERVICE TWIN CITIES/CHANHASSEN MN
1000 PM CST SUN JAN 21 2018


NOTE: "FAIR" INDICATES FEW OR NO CLOUDS BELOW 12,000 FEET WITH NO
SIGNIFICANT WEATHER AND/OR OBSTRUCTIONS TO VISIBILITY. N/A MEANS
CURRENT SKY AND/OR WEATHER CONDITIONS ARE NOT AVAILABLE.

MNZ060>063-068>070-220500-
   Twin Cities Metro

CITY           SKY/WX    TMP DP  RH WIND       PRES   REMARKS
TWIN CITIES    CLOUDY    36  30  79 N9        29.95R
ST PAUL        CLOUDY    36  29  75 N6        29.96S
CRYSTAL        CLOUDY    35  26  69 N5        29.96R WCI  31
BLAINE         FAIR      36  30  80 N7        29.96R
LAKEVILLE      CLOUDY    34  30  86 NE7       29.93R WCI  28
EDEN PRAIRIE   CLOUDY    36  28  73 N8        29.93S
SOUTH ST PAUL  CLOUDY    37  29  74 N3        29.95R
LAKE ELMO      FAIR      36  30  80 N6        29.95S
$$
MNZ001>005-007-008-013>017-022>024-027-028-220500-
   Northwest Minnesota

CITY           SKY/WX    TMP DP  RH WIND       PRES   REMARKS
BEMIDJI        CLOUDY    24  24  97 N6        30.06S WCI  17
HALLOCK        CLOUDY    23  19  86 CALM      30.12S
ROSEAU         CLOUDY    25  19  80 CALM      30.12R
WARROAD        CLOUDY    25  19  80 CALM      30.12R
THIEF RVR FALL CLOUDY    23  22  96 NE5       30.11S WCI  17
CROOKSTON      MOCLDY    25  23  93 CALM      30.12F
FOSSTON        CLOUDY    21  21 100 NE7       30.09S FOG     WCI  13
DETROIT LAKES  CLOUDY    27  27 100 NE8       30.05S WCI  18
MOORHEAD       CLOUDY    25  21  86 NE10      30.09F WCI  15
PARK RAPIDS    CLOUDY    25  22  88 NE7       30.03S WCI  17
MAHNOMEN       CLOUDY    24  23  96 NE10      30.07S WCI  13
$$
MNZ006-009>011-018-025>026-220500-
   North Central Minnesota

CITY           SKY/WX    TMP DP  RH WIND       PRES   REMARKS
BAUDETTE       CLOUDY    26  23  88 NE6       30.09R WCI  19
FLAG ISLAND    CLOUDY    23  21  93 N8        30.11R WCI  14
INTL FALLS     CLOUDY    26  23  88 E6        30.09S FOG     WCI  19
WASKISH        CLOUDY    27  25  93 CALM      30.09S
BIG FORK       CLOUDY    27  25  93 NE3       30.06F FOG
LONGVILLE      CLOUDY    27  25  93 NE3       30.05S
GRAND RAPIDS   CLOUDY    26  24  92 VRB3      30.07S
CRANE LAKE     CLOUDY    25  25 100 CALM      30.11S FOG
ORR            CLOUDY    25  21  86 CALM      30.05S
COOK           FOG       25  25 100 CALM      30.07S VSB 3/4
WALKER         FOG       24  23  96 N3        30.06S VSB 3/4
$$
MNZ012-019>021-037-220500-
   Northeast Minnesota

CITY           SKY/WX    TMP DP  RH WIND       PRES   REMARKS
DULUTH         LGT SNOW  30  28  92 E13       30.03S VSB 1   WCI  20
ELY            FOG       27  27 100 CALM      30.06S VSB 3/4
HIBBING        CLOUDY    26  24  92 NE5       30.05S WCI  20
EVELETH        CLOUDY    25  22  89 NE3       30.07R
DULUTH HARBOR  CLOUDY    32  30  93 NE21      30.08R FOG     WCI  20
TWO HARBORS    LGT SNOW  32  27  80 NE13G18   30.05R WCI  22
SILVER BAY     DRIZZLE   28  28 100 NE12G17   30.07S WCI  18
GRAND MARAIS     N/A     26  21  81 NE6       30.14R WCI  19
G MARAIS ARPRT CLOUDY    19  16  86 N6        30.07R FOG     WCI  11
$$
MNZ029>031-032-039>041-046>048-054>057-064-220500-
   West Central Minnesota

CITY           SKY/WX    TMP DP  RH WIND       PRES   REMARKS
FERGUS FALLS   CLOUDY    27  25  93 N7        30.04S WCI  19
MORRIS         CLOUDY    27  27 100 N10       30.01R FOG     WCI  17
ALEXANDRIA     FAIR      26  23  88 N9        30.00F WCI  17
ELBOW LAKE     CLOUDY    25  24  96 N7        30.02F WCI  17
WADENA         CLOUDY    25  25 100 NE9       30.03S WCI  15
GLENWOOD       CLOUDY    28  27  93 N9        29.99S WCI  20
APPLETON       CLOUDY    30  27  86 N13       30.01R WCI  20
BENSON         CLOUDY    32  27  80 NE9       30.01R WCI  24
ORTONVILLE     MOCLDY    27  23  86 N16       30.02R WCI  14
MADISON        CLOUDY    30  28  93 N12       30.01R WCI  21
WILLMAR        FAIR      34  28  80 NE10      30.00R WCI  26
$$
MNZ033>034-036-042>043-049>051-058-059-220500-
   Central Minnesota

CITY           SKY/WX    TMP DP  RH WIND       PRES   REMARKS
ST CLOUD       CLOUDY    32  27  81 N7        29.98R WCI  26
SAUK CENTRE      N/A     29  25  85 N6        30.00S WCI  23
PAYNESVILLE    CLOUDY    32  29  89 N12       29.97F WCI  23
AITKIN         CLOUDY    25  21  86 N8        30.03R WCI  16
PINE RIVER     CLOUDY    25  21  86 N6        30.07S WCI  18
BRAINERD       CLOUDY    27  23  85 N8        30.04R WCI  19
STAPLES        CLOUDY    25  23  93 N7        30.03S FOG     WCI  17
LONG PRAIRIE   FAIR      28  25  86 NW8       30.00S WCI  20
LITTLE FALLS   MOCLDY    28  21  74 N6        30.01S WCI  22
LITCHFIELD     CLOUDY    34  30  86 N9        29.97F WCI  26
BUFFALO        CLOUDY    34  28  80 N7        29.97S WCI  28
MAPLE LAKE     CLOUDY    35  30  83 MISG      29.97F
HUTCHINSON     CLOUDY    35  30  82 N13G20    29.96F WCI  26
$$
MNZ037-044-045-052-053-220500-
   East Central Minnesota

CITY           SKY/WX    TMP DP  RH WIND       PRES   REMARKS
PRINCETON      CLOUDY    34  28  80 N9        29.98S WCI  26
MORA           FAIR      32  28  86 NE3       30.02R
CAMBRIDGE      CLOUDY    36  27  69 N6        29.98S
RUSH CITY      CLOUDY    32  27  82 N8        29.99R WCI  25
MOOSE LAKE     CLOUDY    30  28  93 NE9G16    30.02R WCI  22
HINCKLEY       CLOUDY    32  30  93 NE12      30.01R WCI  23
CLOQUET        LGT SNOW  28  27  93 NE7       30.03S WCI  21
MCGREGOR       CLOUDY    30  27  86 N6        30.04R WCI  24
$$
MNZ071>073-080-081-089-090-097-098-220500-
   Southwest Minnesota

CITY           SKY/WX    TMP DP  RH WIND       PRES   REMARKS
MONTEVIDEO     CLOUDY    32  30  93 N10       29.99R WCI  24
GRANITE FALLS  CLOUDY    35  31  86 N7        30.00R WCI  29
CANBY          CLOUDY    30  28  93 NW13G18   30.00F WCI  20
MARSHALL       FLURRIES  31  29  92 N21       29.93F WCI  18
REDWOOD FALLS  CLOUDY    34  29  82 NE7       29.94S WCI  28
OLIVIA         CLOUDY    34  30  86 N14       29.95F WCI  24
PIPESTONE      CLOUDY    30  27  86 NE13G20   29.87F WCI  20
WINDOM         CLOUDY    34  19  55 N16       29.88F WCI  23
WORTHINGTON    CLOUDY    33  29  85 NE22      29.85F WCI  21
JACKSON        CLOUDY    32  30  93 NE18      29.86F WCI  20
TRACY          CLOUDY    32  31  96 N7        29.93F WCI  26
SLAYTON        CLOUDY    31  29  92 N15       29.90F WCI  20
$$
MNZ065>067-074>077-082>085-091>093-220500-
   South Central Minnesota

CITY           SKY/WX    TMP DP  RH WIND       PRES   REMARKS
MANKATO        CLOUDY    34  29  82 N14       29.91S WCI  25
NEW ULM        CLOUDY    36  28  75 N9        29.92F
ST JAMES       CLOUDY    34  28  80 N13G20    29.90F WCI  25
FAIRMONT       CLOUDY    34  29  82 N14       29.86F WCI  25
FARIBAULT      CLOUDY    36  30  80 N8        29.91S
OWATONNA       CLOUDY    36  30  80 NE9       29.89S
WASECA         CLOUDY    34  30  86 NE15      29.89F WCI  24
ALBERT LEA     CLOUDY    36  28  75 NE12      29.84F
$$
MNZ078>079-086>088-094>096-220500-
   Southeast Minnesota

CITY           SKY/WX    TMP DP  RH WIND       PRES   REMARKS
ROCHESTER      CLOUDY    36  31  82 NE9       29.86F
RED WING       CLOUDY    39  27  60 NE6       29.91F
STANTON        CLOUDY    36  31  83 N9        29.90S
DODGE CENTER   CLOUDY    34  30  86 N12       29.87S WCI  25
WINONA         CLOUDY    37  32  81 NE3       29.87F
AUSTIN         LGT RAIN  36  30  80 NE12      29.84F
PRESTON        CLOUDY    36  31  82 NE9       29.85F
$$
ABBREVIATIONS USED IN REMARKS
   TC - TEMPERATURES IN CELSIUS
  WCI - WIND CHILL INDEX
   HX - HEAT INDEX
  VSB - VISIBILITY
$$




USA.gov is the U.S. government's official web portal to all federal, state and local government web resources and services.